This is the latest recevied weather packets stored in our database for station/object OH6GKW. If no packets are shown the sender has not sent any weather packets the latest 1 day(s).
| Time | Temp. | Humidity | Pressure | Rain* | Wind** | Luminosity | Snow |
|---|---|---|---|---|---|---|---|
| 1778063013 | 5° C | 69% | 1007.2 hPa | 0 mm | - | 308 W/m² | - |
| 1778062717 | 5° C | 69% | 1007.2 hPa | 0 mm | - | 301 W/m² | - |
| 1778061813 | 4.44° C | 69% | 1006.9 hPa | 0 mm | - | 269 W/m² | - |
| 1778059426 | 5° C | 71% | 1006.4 hPa | 0 mm | - | 267 W/m² | - |
| 1778059117 | 5° C | 71% | 1006.4 hPa | 0 mm | - | 264 W/m² | - |
| 1778058810 | 5° C | 70% | 1006.2 hPa | 0 mm | - | 260 W/m² | - |
| 1778058523 | 5° C | 71% | 1006.2 hPa | 0 mm | - | 267 W/m² | - |
| 1778058218 | 5° C | 70% | 1006.2 hPa | 0 mm | - | 269 W/m² | - |
| 1778057635 | 5° C | 69% | 1006 hPa | 0 mm | - | 282 W/m² | - |
| 1778056716 | 5.56° C | 66% | 1005.9 hPa | 0 mm | - | 586 W/m² | - |
| 1778056426 | 5.56° C | 65% | 1005.9 hPa | 0 mm | - | 663 W/m² | - |
| 1778056123 | 5.56° C | 66% | 1005.8 hPa | 0 mm | - | 602 W/m² | - |
| 1778055816 | 6.11° C | 64% | 1005.8 hPa | 0 mm | - | 662 W/m² | - |
| 1778055508 | 5.56° C | 64% | 1005.8 hPa | 0 mm | - | 621 W/m² | - |
| 1778055225 | 5.56° C | 64% | 1005.6 hPa | 0 mm | - | 355 W/m² | - |
| 1778054916 | 5.56° C | 65% | 1005.6 hPa | 0 mm | - | 655 W/m² | - |
| 1778054611 | 5.56° C | 65% | 1005.6 hPa | 0 mm | - | 779 W/m² | - |
| 1778054026 | 5° C | 66% | 1005.4 hPa | 0 mm | - | 639 W/m² | - |
| 1778053123 | 5° C | 66% | 1005.2 hPa | 0 mm | - | 591 W/m² | - |
| 1778052516 | 5° C | 68% | 1005.1 hPa | 0 mm | - | 563 W/m² | - |
| 1778052241 | 5° C | 67% | 1005.1 hPa | 0 mm | - | 561 W/m² | - |
| 1778051920 | 5° C | 67% | 1005.1 hPa | 0 mm | - | 544 W/m² | - |
| 1778051616 | 5° C | 67% | 1004.9 hPa | 0 mm | - | 528 W/m² | - |
| 1778051321 | 4.44° C | 67% | 1004.9 hPa | 0 mm | - | 521 W/m² | - |
| 1778051014 | 4.44° C | 68% | 1004.9 hPa | 0 mm | - | 514 W/m² | - |
* Rain since midnight (hover to see other rain measurements)
** Current wind speed in m/s (hover to see current wind gust speed)